Back to catalog

STARLINK-11291

AliveCommunicationsVLEO
NORAD 61208·PAYLOAD·🇺🇸 United States

Launched Sep 20, 2024 from Vandenberg Space Force Base

Loading…

Next Passes (next 24 hours)

TLE

FreshSource: CelesTrak SupGP

Epoch: Sep 14, 2026, 22:29 UTC

1 61208C 24171J   26257.93729167 -.00057848  00000+0 -47652-3 0  2575
2 61208  53.1570 323.0723 0001141  75.5630   2.9489 15.69737929    14

Track STARLINK-11291 in real time with AllMySat

Download on the App Store